Location: Newark
(55.4831°N, 25.9422°E)
Time: 18:39:30
(UTC+00:00)

N. Korean satellite - Visible Passes

Search period start: 22 September 2020 00:00
Search period end: 02 October 2020 00:00
Orbit: 455 x 503 km, 97.2° (Epoch: 21 September)

Date Brightness Start Highest point End Pass type
(mag) Time Alt. Az. Time Alt. Az. Time Alt. Az.
23 Sep 9.7 03:03:02 10° NE 03:05:49 20° E 03:08:34 10° SE visible
24 Sep 10.2 02:38:11 10° ENE 02:39:31 12° E 02:40:51 10° ESE visible
26 Sep 9.1 03:18:04 10° NE 03:21:15 27° E 03:24:24 10° SSE visible
27 Sep 9.9 02:52:41 10° NE 02:55:00 16° E 02:57:18 10° SE visible
29 Sep 8.4 03:33:11 10° NNE 03:36:38 38° E 03:40:01 10° SSE visible
30 Sep 9.5 03:07:33 10° NE 03:10:26 22° E 03:13:15 10° SE visible
01 Oct 10.1 02:42:29 10° ENE 02:44:08 13° E 02:45:45 10° ESE visible
